Index of /20260430/WXO-DD/model_gdps/15km/12/231
Name Last modified Size Description
Parent Directory -
20260430T12Z_MSC_GDPS_AirTemp_AGL-120m_LatLon0.15_PT231H.grib2 2026-04-30 16:35 909K
20260430T12Z_MSC_GDPS_AirTemp_AGL-2m_LatLon0.15_PT231H.grib2 2026-04-30 16:35 1.0M
20260430T12Z_MSC_GDPS_AirTemp_AGL-40m_LatLon0.15_PT231H.grib2 2026-04-30 16:35 931K
20260430T12Z_MSC_GDPS_AirTemp_AGL-80m_LatLon0.15_PT231H.grib2 2026-04-30 16:35 918K
20260430T12Z_MSC_GDPS_AirTemp_IsbL-0001_LatLon0.15_PT231H.grib2 2026-04-30 16:35 672K
20260430T12Z_MSC_GDPS_AirTemp_IsbL-0005_LatLon0.15_PT231H.grib2 2026-04-30 16:35 534K
20260430T12Z_MSC_GDPS_AirTemp_IsbL-0500_LatLon0.15_PT231H.grib2 2026-04-30 16:35 763K
20260430T12Z_MSC_GDPS_AirTemp_IsbL-0700_LatLon0.15_PT231H.grib2 2026-04-30 16:35 945K
20260430T12Z_MSC_GDPS_AirTemp_IsbL-0850_LatLon0.15_PT231H.grib2 2026-04-30 16:35 1.1M
20260430T12Z_MSC_GDPS_AirTemp_IsbL-0925_LatLon0.15_PT231H.grib2 2026-04-30 16:35 1.1M
20260430T12Z_MSC_GDPS_AirTemp_IsbL-1000_LatLon0.15_PT231H.grib2 2026-04-30 16:35 1.1M
20260430T12Z_MSC_GDPS_Albedo_Sfc_LatLon0.15_PT231H.grib2 2026-04-30 16:35 243K
20260430T12Z_MSC_GDPS_ConvectivePrecip-Accum_Sfc_LatLon0.15_PT231H.grib2 2026-04-30 16:35 3.8M
20260430T12Z_MSC_GDPS_DewPointDepression_AGL-2m_LatLon0.15_PT231H.grib2 2026-04-30 16:35 765K
20260430T12Z_MSC_GDPS_DewPointDepression_IsbL-0500_LatLon0.15_PT231H.grib2 2026-04-30 16:35 1.0M
20260430T12Z_MSC_GDPS_DewPointDepression_IsbL-0700_LatLon0.15_PT231H.grib2 2026-04-30 16:35 1.1M
20260430T12Z_MSC_GDPS_DewPointDepression_IsbL-0850_LatLon0.15_PT231H.grib2 2026-04-30 16:35 1.2M
20260430T12Z_MSC_GDPS_DewPointDepression_IsbL-0925_LatLon0.15_PT231H.grib2 2026-04-30 16:35 1.0M
20260430T12Z_MSC_GDPS_DewPointDepression_IsbL-1000_LatLon0.15_PT231H.grib2 2026-04-30 16:35 1.0M
20260430T12Z_MSC_GDPS_DewPoint_AGL-2m_LatLon0.15_PT231H.grib2 2026-04-30 16:35 605K
20260430T12Z_MSC_GDPS_DownwardLongwaveRadiationFlux-Accum_Sfc_LatLon0.15_PT231H.grib2 2026-04-30 16:35 739K
20260430T12Z_MSC_GDPS_DownwardShortwaveRadiationFlux-Accum_Sfc_LatLon0.15_PT231H.grib2 2026-04-30 16:35 911K
20260430T12Z_MSC_GDPS_FreezingRain-Accum_Sfc_LatLon0.15_PT231H.grib2 2026-04-30 16:35 464K
20260430T12Z_MSC_GDPS_GeopotentialHeight_IsbL-0001_LatLon0.15_PT231H.grib2 2026-04-30 16:35 434K
20260430T12Z_MSC_GDPS_GeopotentialHeight_IsbL-0005_LatLon0.15_PT231H.grib2 2026-04-30 16:35 491K
20260430T12Z_MSC_GDPS_GeopotentialHeight_IsbL-0500_LatLon0.15_PT231H.grib2 2026-04-30 16:35 598K
20260430T12Z_MSC_GDPS_GeopotentialHeight_IsbL-0700_LatLon0.15_PT231H.grib2 2026-04-30 16:35 685K
20260430T12Z_MSC_GDPS_GeopotentialHeight_IsbL-0850_LatLon0.15_PT231H.grib2 2026-04-30 16:35 708K
20260430T12Z_MSC_GDPS_GeopotentialHeight_IsbL-0925_LatLon0.15_PT231H.grib2 2026-04-30 16:35 730K
20260430T12Z_MSC_GDPS_GeopotentialHeight_IsbL-1000_LatLon0.15_PT231H.grib2 2026-04-30 16:35 786K
20260430T12Z_MSC_GDPS_IcePellets-Accum_Sfc_LatLon0.15_PT231H.grib2 2026-04-30 16:35 192K
20260430T12Z_MSC_GDPS_LatentHeatNetFlux_Sfc_LatLon0.15_PT231H.grib2 2026-04-30 16:35 686K
20260430T12Z_MSC_GDPS_NetLongwaveRadiationFlux-Accum_Sfc_LatLon0.15_PT231H.grib2 2026-04-30 16:35 964K
20260430T12Z_MSC_GDPS_NetShortwaveRadiationFlux-Accum_Sfc_LatLon0.15_PT231H.grib2 2026-04-30 16:35 910K
20260430T12Z_MSC_GDPS_O3MixingRatio_Sfc_LatLon0.15_PT231H.grib2 2026-04-30 16:46 2.2M
20260430T12Z_MSC_GDPS_O3_EAtm_LatLon0.15_PT231H.grib2 2026-04-30 16:46 2.4M
20260430T12Z_MSC_GDPS_PlanetaryBoundaryLayerHeight_Sfc_LatLon0.15_PT231H.grib2 2026-04-30 16:35 2.4M
20260430T12Z_MSC_GDPS_Precip-Accum_Sfc_LatLon0.15_PT231H.grib2 2026-04-30 16:35 5.5M
20260430T12Z_MSC_GDPS_PrecipRate_Sfc_LatLon0.15_PT231H.grib2 2026-04-30 16:35 3.1M
20260430T12Z_MSC_GDPS_Pressure_MSL_LatLon0.15_PT231H.grib2 2026-04-30 16:35 718K
20260430T12Z_MSC_GDPS_Pressure_Sfc_LatLon0.15_PT231H.grib2 2026-04-30 16:35 1.1M
20260430T12Z_MSC_GDPS_RadiativeTemp_Sfc_LatLon0.15_PT231H.grib2 2026-04-30 16:35 669K
20260430T12Z_MSC_GDPS_Rain-Accum_Sfc_LatLon0.15_PT231H.grib2 2026-04-30 16:35 4.3M
20260430T12Z_MSC_GDPS_RelativeHumidity_AGL-2m_LatLon0.15_PT231H.grib2 2026-04-30 16:35 1.0M
20260430T12Z_MSC_GDPS_Runoff-Accum_Sfc_LatLon0.15_PT231H.grib2 2026-04-30 16:35 140K
20260430T12Z_MSC_GDPS_SensibleHeatNetFlux_Sfc_LatLon0.15_PT231H.grib2 2026-04-30 16:35 465K
20260430T12Z_MSC_GDPS_Snow-Accum_Sfc_LatLon0.15_PT231H.grib2 2026-04-30 16:35 2.2M
20260430T12Z_MSC_GDPS_SnowDepth_Sfc_LatLon0.15_PT231H.grib2 2026-04-30 16:35 1.7M
20260430T12Z_MSC_GDPS_SoilTemp_DBS-0to10cm_LatLon0.15_PT231H.grib2 2026-04-30 16:35 515K
20260430T12Z_MSC_GDPS_SoilTemp_Sfc_LatLon0.15_PT231H.grib2 2026-04-30 16:35 584K
20260430T12Z_MSC_GDPS_SoilVolumetricWaterContent_DBS-0to10cm_LatLon0.15_PT231H.grib2 2026-04-30 16:35 596K
20260430T12Z_MSC_GDPS_SoilVolumetricWaterContent_DBS-0to1cm_LatLon0.15_PT231H.grib2 2026-04-30 16:35 649K
20260430T12Z_MSC_GDPS_SpecificHumidity_AGL-120m_LatLon0.15_PT231H.grib2 2026-04-30 16:35 1.1M
20260430T12Z_MSC_GDPS_SpecificHumidity_AGL-2m_LatLon0.15_PT231H.grib2 2026-04-30 16:35 1.2M
20260430T12Z_MSC_GDPS_SpecificHumidity_AGL-40m_LatLon0.15_PT231H.grib2 2026-04-30 16:35 1.1M
20260430T12Z_MSC_GDPS_SpecificHumidity_AGL-80m_LatLon0.15_PT231H.grib2 2026-04-30 16:35 1.1M
20260430T12Z_MSC_GDPS_SpecificHumidity_IsbL-0001_LatLon0.15_PT231H.grib2 2026-04-30 16:35 1.1M
20260430T12Z_MSC_GDPS_SpecificHumidity_IsbL-0005_LatLon0.15_PT231H.grib2 2026-04-30 16:35 1.0M
20260430T12Z_MSC_GDPS_SpecificHumidity_IsbL-0500_LatLon0.15_PT231H.grib2 2026-04-30 16:35 1.4M
20260430T12Z_MSC_GDPS_SpecificHumidity_IsbL-0700_LatLon0.15_PT231H.grib2 2026-04-30 16:35 1.6M
20260430T12Z_MSC_GDPS_SpecificHumidity_IsbL-0850_LatLon0.15_PT231H.grib2 2026-04-30 16:35 2.0M
20260430T12Z_MSC_GDPS_SpecificHumidity_IsbL-0925_LatLon0.15_PT231H.grib2 2026-04-30 16:35 1.6M
20260430T12Z_MSC_GDPS_SpecificHumidity_IsbL-1000_LatLon0.15_PT231H.grib2 2026-04-30 16:35 1.5M
20260430T12Z_MSC_GDPS_SpecificHumidity_Sfc_LatLon0.15_PT231H.grib2 2026-04-30 16:35 675K
20260430T12Z_MSC_GDPS_Thickness_IsbL-0850to0700_LatLon0.15_PT231H.grib2 2026-04-30 16:35 467K
20260430T12Z_MSC_GDPS_Thickness_IsbL-1000to0500_LatLon0.15_PT231H.grib2 2026-04-30 16:35 371K
20260430T12Z_MSC_GDPS_Thickness_IsbL-1000to0850_LatLon0.15_PT231H.grib2 2026-04-30 16:35 491K
20260430T12Z_MSC_GDPS_TotalCloudCover_Sfc_LatLon0.15_PT231H.grib2 2026-04-30 16:35 843K
20260430T12Z_MSC_GDPS_UVIndex-ClearSky_Sfc_LatLon0.15_PT231H.grib2 2026-04-30 16:46 1.0M
20260430T12Z_MSC_GDPS_UVIndex_Sfc_LatLon0.15_PT231H.grib2 2026-04-30 16:46 1.5M
20260430T12Z_MSC_GDPS_UpwardLongwaveRadiationFlux_NTAtm_LatLon0.15_PT231H.grib2 2026-04-30 16:35 837K
20260430T12Z_MSC_GDPS_VerticalVelocity_IsbL-0500_LatLon0.15_PT231H.grib2 2026-04-30 16:35 1.0M
20260430T12Z_MSC_GDPS_VerticalVelocity_IsbL-0700_LatLon0.15_PT231H.grib2 2026-04-30 16:35 1.4M
20260430T12Z_MSC_GDPS_VerticalVelocity_IsbL-0850_LatLon0.15_PT231H.grib2 2026-04-30 16:35 1.6M
20260430T12Z_MSC_GDPS_WindDir_AGL-10m_LatLon0.15_PT231H.grib2 2026-04-30 16:35 1.3M
20260430T12Z_MSC_GDPS_WindDir_AGL-120m_LatLon0.15_PT231H.grib2 2026-04-30 16:35 1.3M
20260430T12Z_MSC_GDPS_WindDir_AGL-40m_LatLon0.15_PT231H.grib2 2026-04-30 16:35 1.4M
20260430T12Z_MSC_GDPS_WindDir_AGL-80m_LatLon0.15_PT231H.grib2 2026-04-30 16:35 1.4M
20260430T12Z_MSC_GDPS_WindDir_IsbL-0001_LatLon0.15_PT231H.grib2 2026-04-30 16:35 657K
20260430T12Z_MSC_GDPS_WindDir_IsbL-0005_LatLon0.15_PT231H.grib2 2026-04-30 16:35 820K
20260430T12Z_MSC_GDPS_WindDir_IsbL-0500_LatLon0.15_PT231H.grib2 2026-04-30 16:35 1.4M
20260430T12Z_MSC_GDPS_WindDir_IsbL-0700_LatLon0.15_PT231H.grib2 2026-04-30 16:35 1.6M
20260430T12Z_MSC_GDPS_WindDir_IsbL-0850_LatLon0.15_PT231H.grib2 2026-04-30 16:35 1.9M
20260430T12Z_MSC_GDPS_WindDir_IsbL-0925_LatLon0.15_PT231H.grib2 2026-04-30 16:35 2.0M
20260430T12Z_MSC_GDPS_WindDir_IsbL-1000_LatLon0.15_PT231H.grib2 2026-04-30 16:35 2.1M
20260430T12Z_MSC_GDPS_WindGust-Max_AGL-10m_LatLon0.15_PT231H.grib2 2026-04-30 16:35 2.2M
20260430T12Z_MSC_GDPS_WindGust-Min_AGL-10m_LatLon0.15_PT231H.grib2 2026-04-30 16:35 2.2M
20260430T12Z_MSC_GDPS_WindGust_AGL-10m_LatLon0.15_PT231H.grib2 2026-04-30 16:35 2.2M
20260430T12Z_MSC_GDPS_WindSpeed_AGL-10m_LatLon0.15_PT231H.grib2 2026-04-30 16:35 1.1M
20260430T12Z_MSC_GDPS_WindSpeed_AGL-120m_LatLon0.15_PT231H.grib2 2026-04-30 16:35 1.2M
20260430T12Z_MSC_GDPS_WindSpeed_AGL-40m_LatLon0.15_PT231H.grib2 2026-04-30 16:35 1.2M
20260430T12Z_MSC_GDPS_WindSpeed_AGL-80m_LatLon0.15_PT231H.grib2 2026-04-30 16:35 1.2M
20260430T12Z_MSC_GDPS_WindSpeed_IsbL-0001_LatLon0.15_PT231H.grib2 2026-04-30 16:35 648K
20260430T12Z_MSC_GDPS_WindSpeed_IsbL-0005_LatLon0.15_PT231H.grib2 2026-04-30 16:35 695K
20260430T12Z_MSC_GDPS_WindSpeed_IsbL-0500_LatLon0.15_PT231H.grib2 2026-04-30 16:35 1.1M
20260430T12Z_MSC_GDPS_WindSpeed_IsbL-0700_LatLon0.15_PT231H.grib2 2026-04-30 16:35 1.5M
20260430T12Z_MSC_GDPS_WindSpeed_IsbL-0850_LatLon0.15_PT231H.grib2 2026-04-30 16:35 1.7M
20260430T12Z_MSC_GDPS_WindSpeed_IsbL-0925_LatLon0.15_PT231H.grib2 2026-04-30 16:35 1.8M
20260430T12Z_MSC_GDPS_WindSpeed_IsbL-1000_LatLon0.15_PT231H.grib2 2026-04-30 16:35 1.8M
20260430T12Z_MSC_GDPS_WindU_AGL-10m_LatLon0.15_PT231H.grib2 2026-04-30 16:35 1.3M
20260430T12Z_MSC_GDPS_WindU_AGL-120m_LatLon0.15_PT231H.grib2 2026-04-30 16:35 971K
20260430T12Z_MSC_GDPS_WindU_AGL-40m_LatLon0.15_PT231H.grib2 2026-04-30 16:35 964K
20260430T12Z_MSC_GDPS_WindU_AGL-80m_LatLon0.15_PT231H.grib2 2026-04-30 16:35 970K
20260430T12Z_MSC_GDPS_WindU_IsbL-0001_LatLon0.15_PT231H.grib2 2026-04-30 16:35 502K
20260430T12Z_MSC_GDPS_WindU_IsbL-0005_LatLon0.15_PT231H.grib2 2026-04-30 16:35 691K
20260430T12Z_MSC_GDPS_WindU_IsbL-0500_LatLon0.15_PT231H.grib2 2026-04-30 16:35 1.1M
20260430T12Z_MSC_GDPS_WindU_IsbL-0700_LatLon0.15_PT231H.grib2 2026-04-30 16:35 1.2M
20260430T12Z_MSC_GDPS_WindU_IsbL-0850_LatLon0.15_PT231H.grib2 2026-04-30 16:35 1.4M
20260430T12Z_MSC_GDPS_WindU_IsbL-0925_LatLon0.15_PT231H.grib2 2026-04-30 16:35 1.5M
20260430T12Z_MSC_GDPS_WindU_IsbL-1000_LatLon0.15_PT231H.grib2 2026-04-30 16:35 1.4M
20260430T12Z_MSC_GDPS_WindV_AGL-10m_LatLon0.15_PT231H.grib2 2026-04-30 16:35 1.3M
20260430T12Z_MSC_GDPS_WindV_AGL-120m_LatLon0.15_PT231H.grib2 2026-04-30 16:35 971K
20260430T12Z_MSC_GDPS_WindV_AGL-40m_LatLon0.15_PT231H.grib2 2026-04-30 16:35 965K
20260430T12Z_MSC_GDPS_WindV_AGL-80m_LatLon0.15_PT231H.grib2 2026-04-30 16:35 970K
20260430T12Z_MSC_GDPS_WindV_IsbL-0001_LatLon0.15_PT231H.grib2 2026-04-30 16:35 687K
20260430T12Z_MSC_GDPS_WindV_IsbL-0005_LatLon0.15_PT231H.grib2 2026-04-30 16:35 771K
20260430T12Z_MSC_GDPS_WindV_IsbL-0500_LatLon0.15_PT231H.grib2 2026-04-30 16:35 1.1M
20260430T12Z_MSC_GDPS_WindV_IsbL-0700_LatLon0.15_PT231H.grib2 2026-04-30 16:35 1.2M
20260430T12Z_MSC_GDPS_WindV_IsbL-0850_LatLon0.15_PT231H.grib2 2026-04-30 16:35 1.4M
20260430T12Z_MSC_GDPS_WindV_IsbL-0925_LatLon0.15_PT231H.grib2 2026-04-30 16:35 1.4M
20260430T12Z_MSC_GDPS_WindV_IsbL-1000_LatLon0.15_PT231H.grib2 2026-04-30 16:35 1.4M